Regional Weather Roundup
Issued by NWS Newport/Morehead, NC

Current Version | Previous Version | Graphics & Text | Print | Product List | Glossary On
Versions: 1 2 3 4 5 6 7 8 9 10 11 12 13 14 15 16 17 18 19 20 21 22 23 24 25 26 27 28 29 30 31 32 33 34 35 36 37 38 39 40 41 42 43 44 45 46 47 48 49 50
558 ASUS42 KMHX 282325 RWRMHX WEATHER ROUNDUP FOR EASTERN NORTH CAROLINA NATIONAL WEATHER SERVICE NEWPORT/MOREHEAD CITY NC 700 PM EDT SAT MAY 28 2016 NOTE: "FAIR" INDICATES FEW OR NO CLOUDS BELOW 12,000 FEET WITH NO SIGNIFICANT WEATHER AND/OR OBSTRUCTIONS TO VISIBILITY NCZ015>017-031-032-045>047-102-103-290000- NORTH COAST CITY SKY/WX TMP DP RH WIND PRES REMARKS EDENTON SUNNY N/A N/A N/A E10 30.14S ELIZABETH CITY SUNNY 77 66 68 E12 30.15S KITTY HAWK CLOUDY 75 66 73 E7 30.14S MANTEO NOT AVBL $$ NCZ045>047-081-094-103-104-290000- CENTRAL COAST CITY SKY/WX TMP DP RH WIND PRES REMARKS FRISCO CLOUDY 76 69 79 E7 30.14S $$ NCZ095-097-098-100-101-290000- SOUTHERN COAST CITY SKY/WX TMP DP RH WIND PRES REMARKS BEAUFORT MOSUNNY 79 70 74 E8 30.11S CEDAR ISLAND NOT AVBL JACKSONVILLE SUNNY 80 67 64 E13 30.09F PINEY ISLAND CLOUDY N/A N/A N/A E15 30.12 WILMINGTON PTSUNNY 77 67 71 E14 30.09F $$ NCZ011>013-027>030-043-044-078>080-089-090>093-098-290000- COASTAL PLAIN CITY SKY/WX TMP DP RH WIND PRES REMARKS AHOSKIE MOSUNNY 79 65 62 SE5 30.13R CLINTON CLOUDY 81 68 65 E3 30.10F ELIZABETHTOWN MOSUNNY 77 73 87 CALM 30.09S GOLDSBORO MOSUNNY 83 66 56 E6 30.09F GREENVILLE MOSUNNY 81 64 57 SE7 30.13S HAVELOCK PTSUNNY 81 67 62 E10 30.12S KENANSVILLE SUNNY 79 64 59 CALM 30.11S KINSTON MOSUNNY 82 63 51 E7 30.12S NEW BERN SUNNY 80 68 66 E10 30.13R RICHLANDS CLOUDY 81 65 58 E9 30.10F ROCKY MOUNT MOSUNNY 82 66 58 SE6 30.11S WASHINGTON CLOUDY 79 65 63 SE9 30.12S WHITEVILLE CLOUDY 77 68 75 CALM 30.09S $$ AMZ130-135-150-152-154-156-158-170-250-252-270-ANZ085-086-088-633-658-670-290000- MARINE OBSERVATIONS STATION/POSITION TIME TEMP WIND PRES WAVE SWELL AIR SEA DIR/SP/G HT/PER HT/PER (UTC) (F) (DEG/KT/KT) (MB) (FT/S) (FT/S) CHESAPEAKE LIGHT 2300 71 130/ 16/ 16 1021.3 64 E VA BEACH 2250 72 67 80/ 4/ 6 1020.9 3/ 8 3/ 8 DUCK 2300 90/ 9/ 10 N/A 2 E DUCK 2211 68 N/A 2/ 8 OREGON INLET 2200 50/ 7/ 10 N/A 13E OREGON INLT 2300 72 N/A 4/ 8 3/ 8 HATTERAS CG 2300 90/ 6/ 9 N/A DIAMOND BUOY 2250 78 79 120/ 10/ 12 1020.2 5/ 8 5/ 8 CAPE LOOKOUT 2300 75 60/ 10/ 10 1019.4 BEAUFORT LAB 2300 100/ 8/ 12 N/A 30 SE NEW RVR IN 2225 75 N/A 6/ 8 27 SE WRIGHTSVLE 2308 76 74 70/ 14/ 19 1018.2 5 SE WRIGHTSVLE 2308 76 75 70/ 16/ 19 1019.3 225 S CAPE HAT 2250 75 76 120/ 16/ 19 1017.9 5/ 7 3/ 7 41 SE CHARLESTON 2250 76 76 60/ 16/ 19 1015.3 9/ 8 7/ 8 $$

USA.gov is the U.S. government's official web portal to all federal, state and local government web resources and services.